Regional Weather Roundup
Issued by NWS Goodland, KS

Home | Current Version | Previous Version | Graphics & Text | Print | Product List | Glossary On
Versions: 1 2 3 4 5 6 7 8 9 10 11 12 13 14 15 16 17 18 19 20 21 22 23 24 25 26 27 28 29 30 31 32 33 34 35 36 37 38 39 40 41 42 43 44 45 46 47 48 49 50
000
ASUS43 KGLD 160908
RWRGLD

GOODLAND FORECAST AREA HOURLY WEATHER ROUNDUP
NATIONAL WEATHER SERVICE GOODLAND KS
200 AM MST MON JAN 16 2017

...OFFICIAL OBSERVATIONS...

CITY           SKY/WX    TMP DP  RH WIND       PRES   REMARKS
GOODLAND KS    FRZ RAIN  30  29  96 N13       29.91S WCI  20
HILL CITY KS   FRZ RAIN  32  31  96 NE9       29.95F FOG
IMPERIAL NEB   FRZ RAIN  31  30  96 N8        29.96S FOG
MCCOOK NEB     CLOUDY    30  30 100 NE7       29.97F FOG
AKRON CO       CLOUDY    27  25  92 NW10      29.93R FOG     WCI  17
BURLINGTON CO  CLOUDY    31  29  92 N12       29.90S
LIMON CO       LGT SNOW  27  26  96 N15       29.91R FOG     WCI  15
$$

...UNOFFICIAL OBSERVATIONS...

CITY           SKY/WX    TMP DP  RH WIND       PRES   REMARKS
LENORA KS        N/A     30  32 100 CALM        N/A
NORTON KS      MIX PCPN  30  27  86 N10       29.95F
SHARON SPRINGS   N/A     31  30  95 N9          N/A
TRIBUNE KS     CLOUDY    32  32 100 N10       29.89F
TRENTON NEB      N/A     30  32 100 CALM        N/A
KIT CARSON CO    N/A     30  27  90 CALM        N/A
$$




USA.gov is the U.S. government's official web portal to all federal, state and local government web resources and services.